Flag for United Kingdom Weather past 2 weeks in Aylesbury, England, United Kingdom

Now
46 °F

Cool.


Feels Like: 41 °F
Forecast: 38 / 61 °F
Wind: 10 mph from East

Location: High Wicombe Hqstc

Current Time: Apr 21, 2015 at 9:27:24 AM

Latest Report: Apr 21, 2015 at 8:00 AM


Visibility: 19 mi

Pressure: 30.55 "Hg

Humidity: 67%

Dew point: 35 °F

Location of AylesburyLocation

Historic Weather in Aylesbury — Graph

°F

Aylesbury temperature yesterday

Maximum temperature yesterday: 61 °F (at 5:00 PM)
Minimum temperature yesterday: 39 °F (at 3:00 AM)
Average temperature yesterday: 50 °F

Past Weeks' High & Low Weather Summary

 TemperatureHumidityPressure
High71 °F (Apr 15, 2:00 PM)97% (Apr 7, 12:00 AM)30.65 "Hg (Apr 7, 12:00 AM)
Low37 °F (Apr 19, 3:00 AM)30% (Apr 10, 5:00 PM)29.87 "Hg (Apr 11, 6:00 AM)
Average50 °F68%30.28 "Hg
* Reported Apr 6 8:00 AM — Apr 21 8:00 AM, Aylesbury, Weather by CustomWeather, © 2015

Note: Actual official high and low records may vary slightly from our data, if they occured in-between our weather recording intervals... More about our weather records

Advertising

Aylesbury weather history for previous 24 hours

 ConditionsComfort  
Time TempWeatherWind HumidityBarometerVisibility
8:00 AM
Tue, Apr 21
46 °FCool.10 mph67%30.55 "Hg19 mi
7:00 AM43 °FQuite cool.7 mph69%30.55 "Hg14 mi
6:00 AM42 °FQuite cool.7 mph69%30.54 "Hg15 mi
5:00 AM41 °FQuite cool.7 mph72%30.53 "Hg19 mi
3:00 AM42 °FQuite cool.6 mph71%30.54 "Hg19 mi
2:00 AM42 °FQuite cool.5 mph75%30.53 "Hg12 mi
1:00 AM44 °FQuite cool.6 mph74%30.52 "Hg11 mi
12:00 AM47 °FCool.7 mph69%30.51 "Hg12 mi
11:00 PM
Mon, Apr 20
48 °FCool.5 mph67%30.50 "Hg14 mi
9:00 PM53 °FCool.6 mph56%30.47 "Hg14 mi
8:00 PM56 °FRefreshingly cool.6 mph50%30.44 "Hg14 mi
7:00 PM59 °FRefreshingly cool.6 mph45%30.42 "Hg22 mi
6:00 PM60 °FRefreshingly cool.8 mph47%30.41 "Hg11 mi
5:00 PM61 °FRefreshingly cool.9 mph43%30.41 "Hg11 mi
4:00 PM60 °FRefreshingly cool.12 mph48%30.41 "Hg9 mi
3:00 PM59 °FRefreshingly cool.9 mph52%30.42 "Hg8 mi
2:00 PM59 °FRefreshingly cool.8 mph54%30.43 "Hg10 mi
1:00 PM57 °FRefreshingly cool.9 mph54%30.42 "Hg11 mi
12:00 PM56 °FRefreshingly cool.8 mph58%30.42 "Hg12 mi
11:00 AM53 °FCool.10 mph59%30.42 "Hg9 mi
10:00 AM50 °FCool.7 mph63%30.41 "Hg19 mi
9:00 AM46 °FCool.9 mph65%30.40 "Hg19 mi
Weather by CustomWeather, © 2015

See weather overviewHow to use our weather pages